When you browse on this site, cookies collect data to enhance your experience and personalize the content and advertising you see.
Visit our Privacy Policy to learn more. By continuing to use the site, you agree to this use of cookies and data.

Previsão horária em Bobyakovo

Hoje, 8 Julho, Quarta-feira

Tempo Temperatura Precipitação Vento Pressão Humidade
00:00 +13°C° 0 mm 2 m/s 751 mmHg 85%
01:00 +13°C° 0 mm 2 m/s 751 mmHg 85%
02:00 +12°C° 0 mm 2 m/s 751 mmHg 85%
03:00 +13°C° 0 mm 2 m/s 751 mmHg 85%
04:00 +13°C° 0 mm 2 m/s 751 mmHg 86%
05:00 +13°C° 0 mm 2 m/s 751 mmHg 86%
06:00 +14°C° 0 mm 2 m/s 751 mmHg 81%
07:00 +15°C° 0 mm 1 m/s 751 mmHg 76%
08:00 +16°C° 0 mm 1 m/s 751 mmHg 71%
09:00 +17°C° 0.2 mm 2 m/s 751 mmHg 68%
10:00 +18°C° 0.2 mm 2 m/s 751 mmHg 65%
11:00 +19°C° 0.2 mm 2 m/s 751 mmHg 62%
12:00 +20°C° 0.2 mm 3 m/s 751 mmHg 57%
13:00 +21°C° 0.2 mm 3 m/s 751 mmHg 51%
14:00 +21°C° 0.2 mm 3 m/s 750 mmHg 46%
15:00 +21°C° 0 mm 3 m/s 750 mmHg 49%
16:00 +21°C° 0 mm 3 m/s 750 mmHg 52%
17:00 +20°C° 0 mm 3 m/s 750 mmHg 56%
18:00 +19°C° 0.1 mm 3 m/s 751 mmHg 64%
19:00 +17°C° 0.1 mm 2 m/s 751 mmHg 73%
20:00 +15°C° 0.1 mm 2 m/s 751 mmHg 81%
21:00 +14°C° 0 mm 2 m/s 751 mmHg 85%
22:00 +13°C° 0 mm 1 m/s 751 mmHg 88%
23:00 +12°C° 0 mm 1 m/s 752 mmHg 92%

Amanhã, 9 Julho, Quinta-feira

Tempo Temperatura Precipitação Vento Pressão Humidade
00:00 +12°C° 0 mm 1 m/s 752 mmHg 92%
01:00 +12°C° 0 mm 1 m/s 752 mmHg 92%
02:00 +13°C° 0 mm 1 m/s 752 mmHg 92%
03:00 +12°C° 0 mm 1 m/s 752 mmHg 92%
04:00 +12°C° 0 mm 2 m/s 752 mmHg 92%
05:00 +10°C° 0 mm 2 m/s 752 mmHg 92%
06:00 +13°C° 0 mm 2 m/s 752 mmHg 84%
07:00 +13°C° 0 mm 3 m/s 752 mmHg 76%
08:00 +16°C° 0 mm 3 m/s 752 mmHg 67%
09:00 +17°C° 0 mm 3 m/s 752 mmHg 62%
10:00 +18°C° 0 mm 3 m/s 753 mmHg 57%
11:00 +19°C° 0 mm 4 m/s 753 mmHg 52%
12:00 +20°C° 0.2 mm 4 m/s 753 mmHg 51%
13:00 +20°C° 0.2 mm 4 m/s 752 mmHg 51%
14:00 +21°C° 0.2 mm 4 m/s 752 mmHg 50%
15:00 +20°C° 0.3 mm 4 m/s 753 mmHg 54%
16:00 +20°C° 0.3 mm 4 m/s 753 mmHg 58%
17:00 +19°C° 0.3 mm 4 m/s 753 mmHg 62%
18:00 +18°C° 0.1 mm 3 m/s 753 mmHg 68%
19:00 +17°C° 0.1 mm 3 m/s 753 mmHg 74%
20:00 +15°C° 0.1 mm 2 m/s 753 mmHg 80%
21:00 +14°C° 0 mm 2 m/s 754 mmHg 82%
22:00 +13°C° 0 mm 2 m/s 754 mmHg 84%
23:00 +12°C° 0 mm 2 m/s 754 mmHg 87%

Depois de amanhã, 10 Julho, Sexta-feira

Tempo Temperatura Precipitação Vento Pressão Humidade
00:00 +10°C° 0 mm 2 m/s 755 mmHg 88%
01:00 +10°C° 0 mm 2 m/s 755 mmHg 89%
02:00 +9°C° 0 mm 2 m/s 755 mmHg 90%
03:00 +10°C° 0 mm 1 m/s 755 mmHg 90%
04:00 +11°C° 0 mm 1 m/s 755 mmHg 89%
05:00 +11°C° 0 mm 1 m/s 755 mmHg 89%
06:00 +13°C° 0 mm 1 m/s 755 mmHg 82%
07:00 +15°C° 0 mm 2 m/s 755 mmHg 75%
08:00 +17°C° 0 mm 2 m/s 756 mmHg 68%
09:00 +18°C° 0 mm 2 m/s 755 mmHg 63%
10:00 +19°C° 0 mm 3 m/s 755 mmHg 59%
11:00 +20°C° 0 mm 4 m/s 755 mmHg 54%
12:00 +19°C° 0.1 mm 4 m/s 755 mmHg 57%
13:00 +19°C° 0.1 mm 4 m/s 754 mmHg 61%
14:00 +18°C° 0.1 mm 4 m/s 754 mmHg 64%
15:00 +17°C° 0.1 mm 4 m/s 754 mmHg 71%
16:00 +16°C° 0.1 mm 3 m/s 754 mmHg 77%
17:00 +15°C° 0.1 mm 2 m/s 753 mmHg 84%
18:00 +15°C° 0.1 mm 2 m/s 753 mmHg 87%
19:00 +15°C° 0.1 mm 2 m/s 753 mmHg 91%
20:00 +15°C° 0.1 mm 2 m/s 753 mmHg 94%
21:00 +15°C° 0 mm 2 m/s 753 mmHg 95%
22:00 +15°C° 0 mm 2 m/s 753 mmHg 96%
23:00 +14°C° 0 mm 2 m/s 752 mmHg 98%

11 Julho, Sábado

Tempo Temperatura Precipitação Vento Pressão Humidade
00:00 +15°C° 0 mm 2 m/s 752 mmHg 98%
01:00 +15°C° 0 mm 2 m/s 752 mmHg 98%
02:00 +15°C° 0 mm 2 m/s 751 mmHg 98%
03:00 +16°C° 0.3 mm 3 m/s 751 mmHg 98%
04:00 +16°C° 0.3 mm 3 m/s 751 mmHg 98%
05:00 +17°C° 0.3 mm 3 m/s 751 mmHg 98%
06:00 +17°C° 0.5 mm 4 m/s 751 mmHg 97%
07:00 +17°C° 0.5 mm 4 m/s 750 mmHg 97%
08:00 +17°C° 0.5 mm 5 m/s 750 mmHg 96%
09:00 +19°C° 0.3 mm 5 m/s 750 mmHg 92%
10:00 +20°C° 0.3 mm 5 m/s 751 mmHg 89%
11:00 +21°C° 0.3 mm 5 m/s 751 mmHg 85%
12:00 +21°C° 0.6 mm 5 m/s 751 mmHg 83%
13:00 +21°C° 0.6 mm 5 m/s 751 mmHg 81%
14:00 +22°C° 0.6 mm 5 m/s 752 mmHg 79%
15:00 +22°C° 0.1 mm 5 m/s 752 mmHg 72%
16:00 +22°C° 0.1 mm 5 m/s 752 mmHg 65%
17:00 +23°C° 0.1 mm 5 m/s 753 mmHg 58%
18:00 +21°C° 0 mm 4 m/s 753 mmHg 62%
19:00 +19°C° 0 mm 3 m/s 754 mmHg 66%
20:00 +18°C° 0 mm 3 m/s 754 mmHg 70%
21:00 +17°C° 0 mm 3 m/s 755 mmHg 70%
22:00 +16°C° 0 mm 3 m/s 755 mmHg 70%
23:00 +14°C° 0 mm 3 m/s 755 mmHg 71%

12 Julho, Domingo

Tempo Temperatura Precipitação Vento Pressão Humidade
00:00 +13°C° 0 mm 3 m/s 756 mmHg 74%
01:00 +12°C° 0 mm 3 m/s 756 mmHg 77%
02:00 +11°C° 0 mm 3 m/s 756 mmHg 81%
03:00 +11°C° 0 mm 3 m/s 756 mmHg 82%
04:00 +11°C° 0 mm 3 m/s 756 mmHg 82%
05:00 +12°C° 0 mm 2 m/s 756 mmHg 83%
06:00 +13°C° 0 mm 2 m/s 756 mmHg 79%
07:00 +15°C° 0 mm 2 m/s 756 mmHg 75%
08:00 +16°C° 0 mm 2 m/s 756 mmHg 70%
09:00 +17°C° 0 mm 2 m/s 756 mmHg 66%
10:00 +18°C° 0 mm 2 m/s 756 mmHg 61%
11:00 +19°C° 0 mm 2 m/s 756 mmHg 56%
12:00 +20°C° 0 mm 2 m/s 756 mmHg 54%
13:00 +20°C° 0 mm 2 m/s 756 mmHg 53%
14:00 +21°C° 0 mm 2 m/s 756 mmHg 51%
15:00 +21°C° 0.1 mm 2 m/s 756 mmHg 55%
16:00 +21°C° 0.1 mm 2 m/s 756 mmHg 58%
17:00 +20°C° 0.1 mm 3 m/s 755 mmHg 62%
18:00 +19°C° 0.3 mm 2 m/s 755 mmHg 70%
19:00 +17°C° 0.3 mm 2 m/s 755 mmHg 79%
20:00 +16°C° 0.3 mm 2 m/s 755 mmHg 87%
21:00 +15°C° 0 mm 2 m/s 756 mmHg 90%
22:00 +14°C° 0 mm 2 m/s 756 mmHg 92%
23:00 +13°C° 0 mm 2 m/s 756 mmHg 95%

13 Julho, Segunda-feira

Tempo Temperatura Precipitação Vento Pressão Humidade
00:00 +13°C° 0 mm 2 m/s 756 mmHg 95%
01:00 +12°C° 0 mm 2 m/s 756 mmHg 96%
02:00 +12°C° 0 mm 2 m/s 756 mmHg 97%
03:00 +12°C° 0 mm 2 m/s 756 mmHg 97%
04:00 +12°C° 0 mm 2 m/s 756 mmHg 97%
05:00 +12°C° 0 mm 2 m/s 756 mmHg 97%
06:00 +13°C° 0 mm 2 m/s 756 mmHg 92%
07:00 +15°C° 0 mm 2 m/s 756 mmHg 87%
08:00 +17°C° 0 mm 2 m/s 756 mmHg 82%
09:00 +18°C° 0.2 mm 2 m/s 756 mmHg 76%
10:00 +19°C° 0.2 mm 2 m/s 756 mmHg 69%
11:00 +20°C° 0.2 mm 2 m/s 756 mmHg 62%
12:00 +21°C° 0.4 mm 2 m/s 755 mmHg 61%
13:00 +21°C° 0.4 mm 2 m/s 755 mmHg 61%
14:00 +21°C° 0.4 mm 2 m/s 755 mmHg 60%
15:00 +21°C° 0.5 mm 2 m/s 755 mmHg 63%
16:00 +21°C° 0.5 mm 2 m/s 755 mmHg 66%
17:00 +21°C° 0.5 mm 2 m/s 755 mmHg 69%
18:00 +19°C° 0.2 mm 2 m/s 755 mmHg 75%
19:00 +18°C° 0.2 mm 2 m/s 755 mmHg 81%
20:00 +16°C° 0.2 mm 2 m/s 755 mmHg 87%
21:00 +16°C° 0 mm 2 m/s 755 mmHg 89%
22:00 +15°C° 0 mm 2 m/s 755 mmHg 91%
23:00 +14°C° 0 mm 2 m/s 755 mmHg 93%
Mostrar mais